Location: Gull Harbor
(47.1000°N, 122.9000°W)
Time: 05:30:19
(UTC-07:00)

ISS - Pass Details

Date: 24 March 2019
Orbit: 408 x 410 km, 51.6° (Epoch: 24 April)

Event Time Altitude Azimuth Distance (km) Brightness Sun altitude
Rises 20:43:43 0° 243° (WSW) 2,330 0.8 -13.2°
Reaches altitude 10° 20:45:48 10° 243° (WSW) 1,470 -0.3 -13.5°
Maximum altitude 20:49:06 89° 147° (SSE) 414 -3.9 -14.0°
Enters shadow 20:51:08 22° 65° (ENE) 961 -2.3 -14.4°
